Weather History for Danbury, CT

Change the Weather History Date:

Tuesday, November 5, 2013

  Actual Average Record
Temperature  
Mean Temperature 40 °F -  
Max Temperature 51 °F 54 °F 74 °F (1961)
Min Temperature 30 °F 36 °F 20 °F (1951)
Degree Days  
Heating Degree Days 24    
Moisture  
Dew Point 29 °F    
Average Humidity 62    
Maximum Humidity 79    
Minimum Humidity 47    
Precipitation  
Precipitation 0.00 in - - ()
Sea Level Pressure  
Sea Level Pressure 30.62 in    
Wind  
Wind Speed 2 mph (SSE)    
Max Wind Speed 9 mph    
Max Gust Speed -    
Visibility 10 miles    
Events      
Averages and records for this station are not official NWS values.
T = Trace of Precipitation, MM = Missing Value Source: NWS Daily Summary

Daily Weather History Graph

Daily Weather History Graph

Search for Another Location

Airport:

Trip Planner

Search our weather history database for the weather conditions in past years. The results will help you decide how hot, cold, wet, or windy it might be!

Date:

Astronomy

Nov. 05, 2013 Rise Set
Actual Time 6:30 AM EST 4:44 PM EST
Civil Twilight 6:01 AM EST 5:13 PM EST
Nautical Twilight 5:28 AM EST 5:45 PM EST
Astronomical Twilight 4:56 AM EST 6:18 PM EST
Moon 8:43 AM EST (11/5) 6:41 PM EST (11/5)
Length of Visible Light 11h 11m
Length of Day
10h 13m
Waxing Crescent, 6% of the Moon is Illuminated
Nov 5
Waxing Crescent
Nov 10
First Quarter
Nov 17
Full
Nov 25
Last Quarter
Dec 2
New

Hourly Weather History & Observations

Time (EST) Temp. Windchill Dew Point Humidity Pressure Visibility Wind Dir Wind Speed Gust Speed Precip Events Conditions
12:53 AM 30.0 °F - 21.0 °F 69% 30.69 in 7.0 mi Calm Calm - N/A   Clear
1:53 AM 30.0 °F - 19.9 °F 66% 30.69 in 9.0 mi Calm Calm - N/A   Clear
2:53 AM 30.9 °F 26.2 °F 19.0 °F 61% 30.66 in 10.0 mi North 4.6 mph - N/A   Clear
3:53 AM 30.9 °F - 19.9 °F 64% 30.67 in 10.0 mi Calm Calm - N/A   Clear
4:53 AM 30.9 °F - 19.9 °F 64% 30.68 in 10.0 mi Calm Calm - N/A   Clear
5:53 AM 30.0 °F - 19.9 °F 66% 30.69 in 10.0 mi Calm Calm - N/A   Clear
6:53 AM 30.0 °F - 19.9 °F 66% 30.68 in 10.0 mi Calm Calm - N/A   Clear
7:53 AM 34.0 °F 31.0 °F 21.9 °F 61% 30.69 in 10.0 mi NE 3.5 mph - N/A   Clear
8:53 AM 37.0 °F 32.4 °F 21.9 °F 54% 30.69 in 10.0 mi ENE 5.8 mph - N/A   Clear
9:53 AM 44.1 °F 42.5 °F 25.0 °F 47% 30.68 in 10.0 mi North 3.5 mph - N/A   Clear
10:53 AM 48.0 °F - 32.0 °F 54% 30.66 in 10.0 mi SE 8.1 mph - N/A   Partly Cloudy
11:53 AM 48.9 °F - 33.1 °F 54% 30.65 in 10.0 mi Variable 4.6 mph - N/A   Overcast
12:53 PM 51.1 °F - 34.0 °F 52% 30.61 in 10.0 mi South 5.8 mph - N/A   Overcast
1:53 PM 51.1 °F - 34.0 °F 52% 30.60 in 10.0 mi SSW 9.2 mph - N/A   Overcast
2:53 PM 51.1 °F - 34.0 °F 52% 30.58 in 10.0 mi South 6.9 mph - N/A   Scattered Clouds
3:53 PM 50.0 °F - 33.1 °F 52% 30.57 in 10.0 mi South 4.6 mph - N/A   Clear
4:18 PM 48.2 °F - 33.8 °F 58% 30.55 in 10.0 mi SSE 3.5 mph - N/A   Partly Cloudy
4:53 PM 46.9 °F - 34.0 °F 61% 30.57 in 10.0 mi South 3.5 mph - N/A   Scattered Clouds
5:53 PM 46.0 °F 42.5 °F 34.0 °F 63% 30.56 in 10.0 mi SE 6.9 mph - N/A   Partly Cloudy
6:53 PM 45.0 °F - 35.1 °F 68% 30.58 in 10.0 mi Calm Calm - N/A   Clear
7:53 PM 46.0 °F - 35.1 °F 66% 30.57 in 10.0 mi Calm Calm - N/A   Clear
8:53 PM 46.0 °F 44.8 °F 36.0 °F 68% 30.55 in 10.0 mi South 3.5 mph - N/A   Clear
9:53 PM 44.1 °F - 36.0 °F 73% 30.54 in 10.0 mi Calm Calm - N/A   Clear
10:53 PM 41.0 °F - 35.1 °F 79% 30.53 in 10.0 mi Calm Calm - N/A   Clear
11:53 PM 42.1 °F - 36.0 °F 79% 30.52 in 10.0 mi Calm Calm - N/A   Clear